Location: Overspoor
(51.4747°N, 5.6641°E)
Time: 20:53:27
(UTC+02:00)

RS-15 - Pass Details

Date: 28 June 2022
Orbit: 1881 x 2163 km, 64.8° (Epoch: 15 August)

Event Time Altitude Azimuth Distance (km) Brightness Sun altitude
Rises 01:17:34 0° 317° (NW) 5,695 11.3 -15.1°
Reaches altitude 10° 01:21:02 10° 317° (NW) 4,693 10.8 -15.1°
Maximum altitude 01:33:28 85° 232° (SW) 2,156 8.2 -15.2°
Drops below altitude 10° 01:45:31 10° 146° (SE) 4,559 9.5 -15.2°
Enters shadow 01:46:14 - 145° (SE) 4,766 9.6 -15.2°
